Tracking 31027 objects as of 19-Jul-2025
HD Live streaming from Space Station
objects crossing your sky now

COSMOS 2251 DEB

Track COSMOS 2251 DEB now!
10-day predictions


NORAD ID: 34924
Int'l Code: 1993-036ADV
Perigee: 664.4 km
Apogee: 747.0 km
Inclination: 74.0 °
Period: 98.7 minutes
Semi major axis: 7076 km
RCS: 0.0155 m2 (small)
Launch date: June 16, 1993
Source: Commonwealth of Independent States (former USSR) (CIS)
Launch site: PLESETSK MISSILE AND SPACE COMPLEX (PKMTR)

Note: This is SATELLITE DEBRIS
Your satellite tracking list
SKOLTECH-B2
Track 1 satellite(s)




NASA's NSSDC Master Catalog

Two Line Element Set (TLE):
1 34924U 93036ADV 25199.52564479  .00003143  00000-0  66917-3 0  9994
2 34924  74.0418   9.8834 0058369 130.7963 286.4798 14.58346849855767
Source of the keplerian elements: AFSPC